NWK39 YSSY-YSCB

Flight info

Callsign NWK39
Flight time 0h 31m
Altitude 20000
Route WOL H65 LEECE
Aircraft A320/M-SDE3FGHIRWY/LB1

Departure

Time 2026-05-05 11:15
Airport Sydney Kingsford Smith International Airport (YSSY)

Arrival

Time 2026-05-05 11:46
Airport Canberra Airport (YSCB)
Time Latitude Longitude Altitude Speed Heading
2026-05-05 10:47 -33.93116 151.17713 30 ft 0 kts 190°
2026-05-05 11:03 -33.93107 151.17715 30 ft 4 kts 191°
2026-05-05 11:03 -33.93081 151.17723 30 ft 4 kts 200°
2026-05-05 11:03 -33.93058 151.17737 30 ft 4 kts 233°
2026-05-05 11:04 -33.93053 151.17754 30 ft 0 kts 295°
2026-05-05 11:04 -33.93053 151.17755 30 ft 0 kts 295°
2026-05-05 11:11 -33.93050 151.17746 3 ft 4 kts 297°
2026-05-05 11:12 -33.93022 151.17684 30 ft 13 kts 297°
2026-05-05 11:12 -33.92999 151.17554 30 ft 19 kts 281°
2026-05-05 11:12 -33.92972 151.17390 30 ft 18 kts 281°
2026-05-05 11:12 -33.92959 151.17312 29 ft 0 kts 282°
2026-05-05 11:13 -33.92959 151.17311 30 ft 1 kts 282°
2026-05-05 11:13 -33.92954 151.17281 31 ft 6 kts 282°
2026-05-05 11:13 -33.92959 151.17212 31 ft 11 kts 244°
2026-05-05 11:14 -33.93057 151.17190 30 ft 24 kts 170°
2026-05-05 11:14 -33.93449 151.17288 27 ft 92 kts 168°
2026-05-05 11:14 -33.94280 151.17503 31 ft 146 kts 168°
2026-05-05 11:14 -33.95374 151.17820 240 ft 172 kts 169°
2026-05-05 11:15 -33.96591 151.18100 771 ft 181 kts 176°
2026-05-05 11:15 -33.97839 151.18089 1537 ft 178 kts 184°
2026-05-05 11:15 -33.99099 151.17959 2110 ft 190 kts 184°
2026-05-05 11:15 -34.00502 151.17799 2445 ft 215 kts 184°
2026-05-05 11:16 -34.02076 151.17628 2859 ft 239 kts 182°
2026-05-05 11:16 -34.03762 151.17887 3560 ft 250 kts 165°
2026-05-05 11:16 -34.05442 151.18429 4454 ft 255 kts 165°
2026-05-05 11:16 -34.07169 151.18997 5376 ft 259 kts 166°
2026-05-05 11:17 -34.08921 151.19580 6246 ft 265 kts 166°
2026-05-05 11:17 -34.10732 151.20183 7029 ft 273 kts 166°
2026-05-05 11:17 -34.12581 151.20797 7844 ft 278 kts 166°
2026-05-05 11:17 -34.14452 151.21423 8746 ft 280 kts 165°
2026-05-05 11:18 -34.16343 151.22058 9591 ft 284 kts 166°
2026-05-05 11:18 -34.18310 151.22333 10371 ft 287 kts 184°
2026-05-05 11:18 -34.20278 151.21846 10935 ft 298 kts 202°
2026-05-05 11:18 -34.22078 151.20509 11390 ft 310 kts 223°
2026-05-05 11:19 -34.23525 151.18559 12110 ft 314 kts 230°
2026-05-05 11:19 -34.24954 151.16534 12844 ft 318 kts 230°
2026-05-05 11:19 -34.26402 151.14506 13606 ft 320 kts 230°
2026-05-05 11:19 -34.27870 151.12451 14290 ft 325 kts 230°
2026-05-05 11:20 -34.29350 151.10371 14948 ft 327 kts 230°
2026-05-05 11:20 -34.30842 151.08273 15604 ft 330 kts 230°
2026-05-05 11:20 -34.32347 151.06155 16261 ft 333 kts 231°
2026-05-05 11:20 -34.33863 151.04017 16922 ft 336 kts 231°
2026-05-05 11:21 -34.35389 151.01860 17566 ft 339 kts 231°
2026-05-05 11:21 -34.36935 150.99687 18216 ft 342 kts 229°
2026-05-05 11:21 -34.38676 150.97670 18567 ft 355 kts 224°
2026-05-05 11:21 -34.40541 150.95632 18910 ft 365 kts 224°
2026-05-05 11:22 -34.42446 150.93575 19421 ft 369 kts 224°
2026-05-05 11:22 -34.44386 150.91487 19763 ft 380 kts 224°
2026-05-05 11:22 -34.46400 150.89314 19886 ft 396 kts 224°
2026-05-05 11:22 -34.48496 150.87048 20011 ft 411 kts 224°
2026-05-05 11:23 -34.50660 150.84696 20182 ft 423 kts 224°
2026-05-05 11:23 -34.52883 150.82273 20230 ft 436 kts 224°
2026-05-05 11:23 -34.55159 150.79763 20229 ft 447 kts 226°
2026-05-05 11:23 -34.57154 150.76872 20230 ft 448 kts 235°
2026-05-05 11:24 -34.59003 150.73824 20232 ft 448 kts 235°
2026-05-05 11:24 -34.60844 150.70771 20237 ft 448 kts 235°
2026-05-05 11:24 -34.62659 150.67755 20233 ft 448 kts 235°
2026-05-05 11:24 -34.64497 150.64697 20234 ft 448 kts 235°
2026-05-05 11:25 -34.66334 150.61640 20248 ft 448 kts 235°
2026-05-05 11:25 -34.68175 150.58573 20246 ft 448 kts 235°
2026-05-05 11:25 -34.70012 150.55511 20240 ft 448 kts 235°
2026-05-05 11:25 -34.71848 150.52448 20239 ft 448 kts 235°
2026-05-05 11:26 -34.73640 150.49470 20248 ft 424 kts 236°
2026-05-05 11:26 -34.75333 150.46657 20251 ft 401 kts 236°
2026-05-05 11:26 -34.76941 150.43981 20251 ft 383 kts 236°
2026-05-05 11:26 -34.78479 150.41416 20252 ft 368 kts 236°
2026-05-05 11:27 -34.79972 150.38915 20267 ft 364 kts 236°
2026-05-05 11:27 -34.81456 150.36421 20265 ft 363 kts 236°
2026-05-05 11:27 -34.82937 150.33930 20260 ft 363 kts 236°
2026-05-05 11:27 -34.84418 150.31439 20263 ft 363 kts 236°
2026-05-05 11:28 -34.85898 150.28949 20262 ft 363 kts 236°
2026-05-05 11:28 -34.87379 150.26460 20268 ft 363 kts 236°
2026-05-05 11:28 -34.88862 150.23970 20264 ft 363 kts 236°
2026-05-05 11:28 -34.90346 150.21477 20265 ft 363 kts 236°
2026-05-05 11:29 -34.91327 150.19828 20265 ft 363 kts 236°
2026-05-05 11:29 -34.92807 150.17339 20268 ft 363 kts 236°
2026-05-05 11:29 -34.94769 150.14037 20276 ft 363 kts 236°
2026-05-05 11:29 -34.96249 150.11542 20278 ft 363 kts 236°
2026-05-05 11:30 -34.97727 150.09047 20290 ft 363 kts 236°
2026-05-05 11:30 -34.99210 150.06545 20289 ft 363 kts 236°
2026-05-05 11:30 -35.00210 150.04858 20294 ft 364 kts 236°
2026-05-05 11:30 -35.01692 150.02355 20294 ft 364 kts 236°
2026-05-05 11:31 -35.03169 149.99849 20291 ft 364 kts 236°
2026-05-05 11:31 -35.04646 149.97342 20292 ft 364 kts 236°
2026-05-05 11:31 -35.06229 149.94976 20285 ft 365 kts 228°
2026-05-05 11:31 -35.07978 149.92727 20292 ft 365 kts 228°
2026-05-05 11:32 -35.09748 149.90453 20278 ft 361 kts 228°
2026-05-05 11:32 -35.11434 149.88287 20027 ft 352 kts 228°
2026-05-05 11:32 -35.13105 149.86142 19763 ft 345 kts 227°
2026-05-05 11:32 -35.14749 149.84021 19357 ft 342 kts 227°
2026-05-05 11:33 -35.16376 149.81915 18938 ft 340 kts 227°
2026-05-05 11:33 -35.17998 149.79813 18512 ft 339 kts 227°
2026-05-05 11:33 -35.19613 149.77718 18037 ft 338 kts 227°
2026-05-05 11:33 -35.21218 149.75639 17603 ft 335 kts 227°
2026-05-05 11:34 -35.22816 149.73574 17172 ft 333 kts 227°
2026-05-05 11:34 -35.24402 149.71527 16747 ft 331 kts 227°
2026-05-05 11:34 -35.25980 149.69485 16321 ft 329 kts 227°
2026-05-05 11:34 -35.27541 149.67455 15901 ft 327 kts 227°
2026-05-05 11:35 -35.29097 149.65430 15494 ft 325 kts 227°
2026-05-05 11:35 -35.30645 149.63415 15077 ft 324 kts 227°
2026-05-05 11:35 -35.32185 149.61410 14663 ft 323 kts 227°
2026-05-05 11:35 -35.33720 149.59416 14243 ft 321 kts 227°
2026-05-05 11:36 -35.35252 149.57426 13813 ft 320 kts 226°
2026-05-05 11:36 -35.36775 149.55444 13402 ft 318 kts 226°
2026-05-05 11:36 -35.38283 149.53480 13001 ft 315 kts 226°
2026-05-05 11:36 -35.39780 149.51529 12609 ft 313 kts 226°
2026-05-05 11:37 -35.41250 149.49614 12225 ft 312 kts 226°
2026-05-05 11:37 -35.42730 149.47684 11830 ft 310 kts 226°
2026-05-05 11:37 -35.44201 149.45762 11443 ft 309 kts 226°
2026-05-05 11:37 -35.45666 149.43847 11058 ft 307 kts 226°
2026-05-05 11:38 -35.47128 149.41936 10673 ft 306 kts 226°
2026-05-05 11:38 -35.48584 149.40032 10357 ft 303 kts 226°
2026-05-05 11:38 -35.50003 149.38173 10201 ft 294 kts 226°
2026-05-05 11:38 -35.51390 149.36356 9808 ft 288 kts 226°
2026-05-05 11:39 -35.52713 149.34622 9644 ft 268 kts 226°
2026-05-05 11:39 -35.53941 149.32995 9425 ft 254 kts 229°
2026-05-05 11:39 -35.54897 149.31204 8995 ft 250 kts 243°
2026-05-05 11:39 -35.55479 149.29171 8334 ft 256 kts 257°
2026-05-05 11:40 -35.55748 149.26983 7683 ft 261 kts 261°
2026-05-05 11:40 -35.55993 149.24785 7234 ft 258 kts 263°
2026-05-05 11:40 -35.55831 149.22658 6989 ft 245 kts 289°
2026-05-05 11:40 -35.55006 149.20922 6796 ft 232 kts 314°
2026-05-05 11:41 -35.53720 149.19831 6349 ft 228 kts 340°
2026-05-05 11:41 -35.52185 149.19409 5889 ft 225 kts 359°
2026-05-05 11:41 -35.50638 149.19433 5567 ft 218 kts
2026-05-05 11:41 -35.49147 149.19446 5381 ft 209 kts
2026-05-05 11:42 -35.47736 149.19446 5158 ft 198 kts
2026-05-05 11:42 -35.46411 149.19445 4877 ft 182 kts
2026-05-05 11:42 -35.45193 149.19445 4645 ft 168 kts
2026-05-05 11:42 -35.44074 149.19445 4431 ft 155 kts
2026-05-05 11:43 -35.43023 149.19445 4226 ft 149 kts
2026-05-05 11:43 -35.41993 149.19445 4022 ft 147 kts
2026-05-05 11:43 -35.40974 149.19445 3826 ft 146 kts
2026-05-05 11:43 -35.39957 149.19445 3612 ft 146 kts
2026-05-05 11:44 -35.38942 149.19445 3404 ft 146 kts
2026-05-05 11:44 -35.37929 149.19445 3181 ft 146 kts
2026-05-05 11:44 -35.36919 149.19445 3007 ft 145 kts
2026-05-05 11:44 -35.35915 149.19445 2793 ft 144 kts
2026-05-05 11:45 -35.34917 149.19445 2582 ft 143 kts
2026-05-05 11:45 -35.33929 149.19445 2394 ft 142 kts
2026-05-05 11:45 -35.32947 149.19445 2208 ft 140 kts
2026-05-05 11:45 -35.31974 149.19445 2030 ft 139 kts
2026-05-05 11:46 -35.31010 149.19450 1878 ft 131 kts 358°
2026-05-05 11:46 -35.30243 149.19448 1878 ft 86 kts
2026-05-05 11:46 -35.29817 149.19453 1879 ft 38 kts
2026-05-05 11:46 -35.29586 149.19416 1879 ft 16 kts 309°
2026-05-05 11:47 -35.29589 149.19330 1879 ft 10 kts 263°
2026-05-05 11:47 -35.29623 149.19250 1879 ft 12 kts 205°
2026-05-05 11:47 -35.29712 149.19244 1879 ft 14 kts 181°
2026-05-05 11:47 -35.29823 149.19242 1879 ft 18 kts 181°
2026-05-05 11:48 -35.30115 149.19248 1879 ft 24 kts 179°
2026-05-05 11:48 -35.30286 149.19247 1879 ft 26 kts 185°
2026-05-05 11:48 -35.30473 149.19238 1879 ft 28 kts 180°
2026-05-05 11:49 -35.30663 149.19236 1880 ft 9 kts 197°
2026-05-05 11:49 -35.30703 149.19155 1879 ft 11 kts 245°
2026-05-05 11:49 -35.30714 149.19127 1880 ft 1 kts 244°
2026-05-05 11:49 -35.30716 149.19121 1877 ft 0 kts 244°